Theta_e
318 317 317 319 320 321 320 318 316 316 315 316 317 317 316 316 318 321 323 324 323 323 323 323 322 322 323 322 321 321 321 320 318 319 318 318 319 308 306 316 318 320 321 320 321 321 320 320 318 316 316 316 316 316 315 315 314 312 312 313 310 306 306 307 306 304 307 310 309 309 309 309 308 308 308 308 308 307 307 307 306 306 306 306 306
320 316 314 316 318 318 317 316 315 315 315 316 317 316 317 317 319 321 323 323 323 323 323 323 323 322 323 322 321 321 320 319 317 318 319 317 319 313 306 314 320 320 320 320 320 321 319 319 318 316 315 315 315 315 315 314 313 310 311 311 308 306 307 308 306 305 308 309 308 309 309 309 308 307 308 307 307 307 307 306 306 306 305 305 305
323 320 315 314 316 315 314 315 314 314 315 316 317 316 316 317 318 320 322 323 323 323 323 323 323 323 322 322 321 321 320 319 318 318 318 317 318 317 310 312 320 320 319 320 320 319 318 317 317 316 315 315 315 315 314 315 314 312 312 310 305 304 306 307 306 307 310 309 308 308 308 308 308 307 307 307 307 306 306 306 305 305 305 305 305
322 321 317 314 314 314 313 314 315 314 315 316 317 316 315 315 315 316 320 323 323 323 324 323 323 322 322 322 321 321 320 319 319 319 319 318 317 318 314 310 316 321 319 319 320 319 317 317 317 316 315 315 315 315 314 315 314 312 312 310 306 304 306 306 304 304 308 308 307 307 308 308 307 307 307 307 307 306 306 306 305 305 305 304 304
321 322 319 315 314 314 314 315 315 315 316 316 317 316 315 315 314 315 318 321 323 324 324 323 323 322 321 321 322 321 320 319 319 319 318 318 317 317 317 312 312 318 320 319 320 319 317 317 316 315 316 315 315 315 315 315 314 313 312 309 306 306 307 306 303 302 303 305 306 305 307 308 307 307 307 306 306 306 305 305 305 305 305 304 304
322 321 321 319 317 317 316 315 316 316 316 316 316 316 316 316 316 317 319 321 323 324 323 323 323 322 322 321 322 321 320 319 319 318 318 318 318 317 318 316 312 315 318 319 319 319 318 317 316 315 315 315 315 315 315 314 314 314 312 307 305 306 306 304 302 302 301 301 302 303 306 307 306 307 306 306 306 305 305 305 304 304 304 304 304
323 322 322 322 321 320 319 317 317 316 316 316 316 316 316 318 319 320 321 321 322 324 323 323 323 323 323 322 322 321 321 320 319 318 318 318 318 318 317 317 314 312 314 318 318 318 318 316 316 314 312 313 314 314 314 314 313 313 312 309 306 304 301 299 300 301 301 299 299 301 304 307 306 306 306 306 306 305 305 305 304 304 304 304 303
324 323 322 322 322 322 321 319 317 317 317 317 316 316 317 319 321 321 321 322 323 323 323 323 323 323 323 322 322 322 321 320 319 318 318 318 318 319 317 316 316 312 311 316 317 317 317 316 316 314 311 309 311 314 314 313 313 313 312 311 308 303 298 296 297 299 299 298 298 299 302 305 306 306 306 305 305 305 304 304 304 304 304 303 303
325 324 322 322 322 322 323 321 318 317 319 319 318 319 320 320 321 321 321 322 323 323 323 323 323 323 323 323 322 322 322 321 320 318 317 318 318 319 317 316 317 314 310 312 316 316 316 316 316 314 311 306 306 311 314 313 313 312 312 311 309 305 300 296 295 296 296 296 296 298 301 303 305 305 305 305 304 304 304 304 304 303 303 303 303
326 324 323 322 322 322 322 322 319 318 320 321 321 322 322 322 322 322 321 321 322 323 323 323 324 323 323 323 322 322 322 321 320 319 317 317 317 318 318 316 317 316 311 309 311 315 316 315 315 314 312 307 303 304 310 313 313 312 311 311 311 308 304 299 295 294 294 295 296 296 299 301 303 304 305 305 304 304 304 304 304 303 303 302 302
326 325 324 323 322 321 321 321 319 318 320 321 322 322 322 322 322 322 321 320 321 322 323 323 323 324 323 323 323 321 321 320 320 319 318 318 317 318 318 317 316 315 313 310 307 311 315 315 315 314 312 309 306 299 299 304 307 310 312 311 311 309 306 301 296 294 294 294 296 295 296 298 301 303 304 304 304 303 304 303 303 303 302 302 302
326 325 324 324 323 321 321 321 319 318 321 322 322 322 322 321 321 322 322 320 319 321 322 323 323 323 323 322 322 322 321 320 320 319 319 318 318 318 318 317 316 314 313 310 307 306 310 313 314 314 311 310 308 299 292 294 296 302 309 311 311 310 307 303 297 294 293 294 295 295 295 295 298 301 302 304 304 303 303 303 303 302 302 302 302
326 325 325 324 323 322 320 319 319 319 321 322 322 322 321 321 321 321 322 322 321 320 321 323 323 323 323 323 322 321 320 320 320 319 319 319 318 319 318 317 317 315 312 310 308 306 305 306 309 310 311 309 308 299 292 292 292 293 301 308 311 310 308 304 299 295 293 293 293 294 294 293 295 298 300 303 303 303 303 303 302 302 302 302 301
327 326 326 325 324 323 321 319 319 320 321 322 322 322 321 321 321 321 321 322 322 322 321 322 323 323 323 323 322 321 319 319 320 319 319 319 319 318 318 318 317 316 314 311 311 310 305 302 302 304 306 307 307 300 292 292 292 291 293 298 305 309 309 306 301 296 293 292 292 293 293 292 293 295 298 301 302 302 302 302 302 302 302 301 301
327 327 327 326 325 325 323 321 320 320 321 321 321 321 321 320 320 321 322 321 321 322 321 321 322 323 323 322 322 321 320 319 319 318 318 319 319 318 317 318 317 316 315 313 311 311 307 303 301 300 301 303 303 299 294 292 292 292 292 292 295 302 308 307 302 296 293 292 292 292 292 292 292 293 297 300 302 302 302 302 302 301 301 301 300
326 327 329 328 326 325 325 323 322 322 322 321 322 321 320 321 320 321 322 321 321 321 320 320 322 322 322 322 321 320 319 320 320 318 315 315 318 318 317 317 316 315 315 313 312 311 309 306 304 301 299 299 299 296 294 292 291 291 292 291 291 295 303 307 303 296 293 291 291 291 291 292 291 292 295 298 300 301 301 301 301 301 301 300 300
326 326 328 329 328 326 325 324 324 323 323 322 322 322 321 320 320 320 321 322 322 322 320 319 321 322 322 322 321 320 320 320 320 319 315 313 315 317 317 317 316 315 314 313 311 310 309 308 306 303 300 298 298 298 295 292 292 291 291 292 291 291 296 301 300 296 293 291 290 291 290 291 290 291 293 295 298 298 299 301 301 301 301 300 299
327 326 326 328 328 327 326 325 324 324 324 323 323 322 321 320 320 320 320 321 322 323 322 319 319 322 323 322 322 322 322 321 319 319 317 313 313 315 316 317 315 313 313 312 311 310 308 308 307 304 301 299 299 299 297 293 291 291 291 291 291 291 291 293 295 295 293 291 290 290 290 290 290 290 291 292 295 295 297 300 300 300 300 299 299
326 326 325 327 328 327 326 325 325 324 324 324 323 322 321 320 320 320 319 321 322 323 323 322 320 320 322 323 323 323 323 321 320 321 321 316 313 313 313 315 314 312 312 311 310 309 308 308 307 305 303 301 299 300 298 294 291 291 291 291 291 291 291 290 291 292 292 290 290 290 290 290 290 290 290 291 292 293 296 299 300 300 300 299 299
326 326 326 326 327 327 326 326 325 325 324 324 324 323 322 320 319 319 319 321 322 322 323 323 321 320 321 322 323 323 322 322 322 322 322 321 317 312 309 310 310 310 311 310 308 308 307 307 307 305 303 302 300 300 298 295 292 291 291 291 291 291 291 291 290 290 290 290 290 289 289 289 289 289 290 291 292 292 295 299 300 300 299 299 299
326 327 326 326 327 327 326 326 325 325 324 324 324 323 323 322 321 319 319 320 321 322 323 323 323 322 322 321 321 322 322 321 320 320 320 321 321 316 311 307 305 309 312 310 308 308 307 306 305 304 303 302 301 300 298 296 293 292 291 291 291 291 291 291 291 290 290 290 289 289 289 289 289 289 289 290 291 292 295 298 298 299 299 298 298
326 327 327 326 327 327 326 326 325 324 324 324 324 324 323 323 322 320 318 319 320 321 322 322 324 323 322 322 322 322 322 320 318 318 318 318 319 320 315 309 307 311 314 313 312 311 308 306 305 304 302 302 301 300 299 297 294 293 292 291 291 291 291 291 291 291 290 290 289 289 289 289 289 289 289 289 289 291 295 297 296 297 298 298 298
326 326 327 326 326 326 325 325 325 324 324 323 323 324 323 323 323 322 321 320 320 321 321 321 323 324 323 322 322 322 322 321 319 318 318 318 318 317 317 314 313 315 315 314 314 313 310 307 306 305 303 302 301 300 299 297 295 294 293 292 291 291 291 292 292 292 291 290 289 289 289 289 289 289 289 289 289 290 293 294 293 295 297 298 298
326 326 326 326 326 325 325 325 324 324 324 324 324 323 323 323 322 323 322 321 321 321 321 321 322 323 323 323 322 322 322 322 321 320 320 320 320 319 319 319 318 317 314 312 312 311 311 310 308 306 304 302 302 301 299 298 296 294 294 293 291 291 292 292 292 292 292 290 289 289 289 289 289 289 288 289 289 289 290 290 290 293 296 296 296
326 326 326 326 325 325 324 324 324 325 324 324 324 323 324 323 323 323 322 321 321 321 322 322 321 322 323 322 322 322 322 322 322 322 321 321 321 321 321 321 321 319 314 310 310 310 310 310 310 308 305 303 302 301 300 298 297 295 295 293 292 291 292 292 292 292 292 291 290 289 289 289 288 288 288 289 289 289 288 288 288 292 294 295 295
326 326 326 326 325 324 325 325 325 325 325 324 324 324 324 323 323 323 322 322 321 321 321 321 321 322 322 322 322 322 322 322 322 323 323 322 321 322 322 321 319 317 312 309 308 307 308 311 313 310 307 305 303 301 300 299 297 296 295 294 293 292 292 292 292 292 292 292 290 289 289 289 288 288 288 288 289 288 288 288 287 289 292 293 293
326 326 326 325 325 325 325 325 325 325 325 324 324 324 324 323 323 323 323 322 322 321 321 321 321 321 321 321 322 322 322 322 322 323 323 323 322 322 323 321 318 314 309 306 304 304 309 311 312 312 310 308 305 303 302 300 298 297 296 295 293 292 292 292 292 292 292 292 291 289 288 288 288 288 288 288 288 288 288 287 287 288 289 289 289
326 326 325 325 325 325 325 324 325 325 325 324 324 324 324 323 323 323 322 322 322 322 321 321 321 321 321 321 321 321 321 322 322 322 323 323 322 322 322 321 321 318 313 308 303 304 309 309 307 311 312 310 308 306 303 300 298 297 296 295 294 292 292 292 292 292 292 292 291 289 288 288 288 288 288 288 288 288 288 287 287 287 287 287 287
326 326 325 325 325 325 325 324 324 324 325 324 324 324 323 323 322 322 322 322 322 322 321 321 321 321 321 321 321 321 321 321 322 322 322 322 322 322 321 320 321 321 319 315 309 306 309 309 307 310 312 311 310 308 304 300 299 298 297 295 294 293 292 292 292 292 293 293 291 289 288 288 288 288 288 288 288 287 287 287 287 287 287 287 286
326 326 325 325 325 324 324 324 324 324 324 324 324 324 323 323 322 322 322 322 321 321 321 321 321 321 321 321 321 321 321 321 321 321 321 322 321 322 322 321 321 321 320 321 317 311 310 310 309 310 313 313 311 308 305 302 300 298 297 295 294 293 293 292 292 293 293 293 292 289 288 288 288 288 288 288 287 287 287 286 287 287 287 286 286
326 325 325 325 325 324 324 324 324 324 324 324 324 323 323 322 322 322 322 322 321 321 321 321 321 320 321 320 320 320 321 321 321 321 321 322 322 321 321 321 320 320 319 320 320 316 313 312 311 312 314 314 311 308 305 303 301 299 297 296 294 293 292 292 292 293 293 293 293 290 288 288 288 288 288 288 287 287 287 286 286 286 287 286 286
326 326 325 325 325 324 324 324 324 324 324 324 324 324 323 323 323 322 322 321 321 321 321 321 320 320 320 320 320 320 321 321 321 321 321 322 322 321 321 321 320 319 318 318 318 317 314 312 311 312 312 312 311 308 305 304 302 299 297 295 294 293 292 292 292 293 293 293 293 291 288 288 288 288 288 287 287 286 286 286 286 286 286 286 286
326 326 325 325 325 324 324 324 324 324 324 324 325 325 324 324 323 322 322 322 321 321 321 321 321 321 321 320 321 321 321 321 321 321 321 321 321 321 321 320 319 318 317 316 316 315 313 311 310 310 310 309 308 307 305 304 301 299 296 294 293 292 292 292 292 293 293 293 293 292 289 288 288 288 287 287 286 286 286 286 286 286 286 286 286
326 326 326 325 325 324 324 324 325 325 325 325 326 325 324 323 323 322 322 322 322 321 321 321 321 321 321 321 321 321 321 321 321 321 321 321 321 320 320 319 318 318 318 315 314 313 312 310 309 308 307 306 305 305 305 303 301 299 296 294 292 292 292 292 293 293 293 293 293 292 289 288 288 288 288 287 286 286 286 286 286 286 286 286 286
326 326 326 325 325 325 324 325 325 325 325 325 325 325 324 324 324 323 322 322 322 322 322 322 322 322 321 321 321 322 321 321 321 321 321 321 321 320 320 319 318 318 318 316 314 312 311 310 307 305 304 304 303 303 303 302 300 298 295 293 292 291 292 292 292 293 293 293 293 292 289 287 288 288 288 287 287 286 286 285 286 286 286 286 285
326 325 325 325 325 325 325 325 325 325 325 325 325 325 325 324 324 324 323 323 322 322 322 322 322 322 321 321 321 322 323 322 321 321 321 321 321 320 319 319 318 318 318 316 314 312 312 309 305 302 303 303 302 302 302 300 298 296 294 293 292 291 291 292 292 293 293 293 293 292 290 288 288 288 288 288 287 286 285 285 285 285 285 285 285
325 325 325 325 325 325 325 325 325 325 325 325 325 325 325 325 325 324 324 323 323 323 323 323 323 322 322 322 322 323 323 322 322 321 321 321 320 319 319 318 318 318 316 314 312 311 310 309 305 302 301 301 300 300 300 298 295 293 292 291 291 290 290 291 292 292 292 292 292 291 290 288 288 288 289 288 287 286 285 285 285 285 285 285 285
325 325 325 325 325 325 325 325 325 325 325 325 325 325 325 325 325 324 324 324 324 323 323 323 323 323 323 322 322 323 322 322 322 321 320 320 320 319 319 319 318 316 314 312 310 309 308 307 305 302 300 299 298 297 297 296 293 291 290 289 289 289 289 290 291 291 292 292 292 292 290 288 288 288 289 289 287 286 285 285 285 285 285 285 285
324 324 324 324 324 325 325 325 325 325 325 325 325 325 325 325 325 324 324 324 324 324 323 323 323 323 323 323 323 323 322 321 321 321 320 320 320 320 319 318 316 314 311 309 308 307 305 304 303 302 300 298 295 294 295 293 291 289 289 288 288 288 289 289 290 290 291 291 292 292 291 289 288 288 289 289 288 287 286 285 285 285 285 285 285
323 324 324 324 324 324 324 325 325 325 325 325 325 325 325 324 324 324 324 323 323 323 323 323 323 323 323 323 323 323 322 322 322 323 321 320 319 318 318 316 314 311 309 307 305 304 302 301 301 299 298 295 293 292 292 290 288 288 289 289 289 289 289 289 290 290 290 291 291 291 291 289 288 289 289 290 290 289 286 285 285 285 285 285 285
322 322 323 323 323 324 324 324 324 324 324 325 324 325 324 324 324 324 323 323 323 322 322 322 322 323 323 323 323 323 323 322 322 322 321 320 319 317 317 315 313 310 308 305 303 301 299 299 299 297 294 293 292 291 290 289 290 291 291 289 289 290 290 290 290 290 290 290 290 291 291 290 289 289 290 291 292 290 287 286 285 285 285 285 285
321 321 322 322 322 323 323 323 323 324 324 324 324 324 324 324 324 323 323 323 322 322 322 321 321 322 322 323 323 323 322 322 321 321 321 319 318 317 316 315 314 311 309 305 302 300 299 298 298 296 293 292 292 292 292 293 294 293 291 289 289 290 290 289 289 290 290 290 289 289 290 290 289 290 290 292 292 290 287 286 286 285 285 285 285
320 320 320 321 321 322 322 322 322 323 323 323 324 324 324 324 324 323 322 322 321 321 321 321 321 321 321 322 322 321 321 321 320 320 319 318 317 315 314 313 313 312 310 306 302 299 298 298 298 296 294 294 294 293 293 294 293 292 291 290 289 289 290 290 291 291 290 290 289 288 289 290 290 290 292 293 292 290 288 286 286 285 285 285 285
318 318 319 320 320 321 321 321 321 322 322 323 323 323 323 323 324 322 321 321 321 321 321 321 321 321 321 321 320 320 320 320 319 318 318 317 315 314 313 312 311 310 309 308 305 302 300 299 299 297 296 296 295 294 295 295 293 292 290 289 289 289 290 290 291 291 291 289 289 287 288 291 291 291 292 293 291 289 288 286 286 285 285 285 284
316 316 317 318 319 319 320 320 320 321 321 322 323 323 322 323 323 321 321 321 321 320 321 321 321 321 320 320 319 319 319 318 317 317 316 315 314 314 312 310 309 308 307 306 305 304 303 302 300 298 297 298 297 297 299 299 295 292 289 289 289 289 289 290 290 291 290 289 288 287 287 290 291 290 291 291 289 287 287 286 285 285 285 285 284
314 315 316 316 317 318 318 319 319 319 320 321 322 322 322 321 321 320 321 321 320 320 320 320 320 320 319 319 319 319 318 317 316 316 314 314 314 313 311 308 307 307 307 306 304 303 303 302 301 300 299 300 300 299 299 298 295 293 291 290 289 288 288 289 289 289 289 288 288 286 286 289 290 289 289 288 287 286 285 285 285 285 285 284 284
312 313 314 315 316 317 317 317 318 318 319 320 321 321 321 321 320 320 320 319 319 319 320 319 318 319 319 318 319 319 318 316 316 315 314 313 314 313 309 307 306 306 307 306 304 303 302 302 301 300 299 299 299 298 297 295 294 292 291 290 290 289 288 288 288 287 288 288 287 286 286 288 288 287 286 286 285 285 285 284 285 285 284 284 283
309 310 312 313 314 315 315 315 315 316 317 318 319 319 320 320 320 320 319 318 317 318 319 318 317 317 317 316 317 317 317 315 315 314 313 312 312 311 308 305 305 305 306 305 304 303 302 301 301 300 299 298 297 295 294 293 291 289 289 288 288 287 287 287 287 287 287 287 287 285 285 286 286 285 284 284 284 284 284 284 285 285 284 283 283
308 309 310 311 312 312 313 313 314 315 316 316 317 318 318 318 319 319 318 317 316 317 318 317 317 317 316 315 315 315 314 314 314 313 311 310 310 309 306 304 303 304 304 304 303 302 301 300 299 298 297 295 294 292 290 289 288 287 287 287 287 286 287 288 289 289 288 287 287 285 284 284 284 283 283 283 283 283 284 284 285 285 284 283 283
308 308 309 310 311 312 313 314 314 315 315 316 317 317 317 317 317 317 317 316 315 315 315 315 315 315 315 314 313 313 313 313 313 312 310 309 308 306 304 303 302 302 303 303 301 300 299 297 295 293 292 291 290 289 288 287 287 287 287 287 287 287 287 288 289 289 289 287 286 285 283 283 283 282 282 282 283 284 284 284 285 285 285 284 283
307 308 309 310 311 312 313 314 315 315 315 316 317 317 317 317 316 316 315 314 312 312 313 312 312 312 312 312 311 311 311 311 311 311 310 308 306 305 304 303 301 302 304 304 302 300 297 294 292 291 289 289 288 287 287 287 287 287 286 286 286 286 287 288 288 288 288 287 285 284 283 283 283 282 281 282 283 284 283 283 283 284 283 283 283
Wind_Speed
15 15 16 17 17 16 15 14 14 15 16 17 16 15 13 12 11 9 8 7 5 4 4 3 3 4 4 3 3 2 2 1 3 3 3 2 4 3 6 11 11 10 8 8 9 8 9 8 8 7 6 6 7 7 7 6 7 7 6 6 5 5 5 5 5 6 7 8 8 8 9 9 9 10 10 11 12 13 14 15 15 17 17 18 18
16 16 16 16 16 16 15 15 15 16 17 18 17 16 13 11 11 10 9 8 6 5 5 4 5 5 5 5 4 3 3 1 3 3 2 2 2 4 4 11 11 9 9 10 9 9 8 7 6 6 7 6 6 7 6 6 5 5 6 5 4 4 4 4 4 6 7 6 7 7 7 8 8 9 10 11 12 12 13 15 15 16 17 17 18
17 17 16 16 16 15 15 16 16 17 18 18 18 16 14 12 11 10 8 7 7 6 5 5 5 5 6 6 5 5 4 3 3 3 2 2 1 3 1 10 11 9 10 10 10 10 8 7 7 6 6 6 5 6 6 6 5 4 5 4 3 3 3 3 4 5 5 5 5 6 6 7 8 9 10 11 12 12 13 14 15 16 16 17 17
18 18 17 16 17 16 16 16 17 17 18 18 18 17 15 14 13 12 11 9 7 7 7 6 6 6 5 5 5 6 5 3 4 4 2 2 2 2 2 6 11 11 10 10 11 10 9 9 8 7 7 6 6 6 5 6 5 4 5 3 1 2 2 2 3 4 4 4 4 4 6 6 7 8 9 10 11 12 12 14 15 15 16 16 17
20 20 18 18 18 18 17 17 17 17 17 18 18 17 16 15 13 13 13 11 9 8 8 7 7 6 5 5 5 7 7 4 4 5 4 3 3 2 2 2 8 11 10 10 12 10 10 10 9 9 8 6 6 6 6 6 6 5 5 2 0 2 2 1 1 2 1 2 3 4 5 6 7 8 9 10 11 11 12 13 14 14 15 16 16
19 22 21 19 19 18 19 19 17 17 17 17 17 17 16 14 13 12 12 11 10 8 8 8 7 7 6 6 6 7 8 6 4 6 7 7 6 4 3 2 4 9 11 11 12 12 12 13 13 13 9 7 7 7 7 7 6 6 5 3 1 1 2 1 1 1 1 1 2 3 4 5 7 7 8 9 10 10 11 12 13 14 14 15 16
16 19 21 19 17 17 19 20 19 18 17 18 17 17 16 14 12 10 10 10 10 9 9 8 8 8 8 7 7 7 8 8 6 7 9 10 9 7 5 4 3 7 11 10 11 15 16 16 16 14 10 8 8 7 8 8 7 7 6 4 3 2 2 2 2 2 2 2 2 3 3 5 6 7 7 8 9 9 10 11 12 13 13 14 15
16 16 17 17 17 17 17 19 21 20 18 19 18 17 16 14 12 11 11 10 10 10 10 10 9 9 9 9 8 8 9 9 8 8 8 10 11 9 6 6 6 6 10 10 10 15 17 17 17 15 11 9 9 8 9 9 8 7 7 6 5 5 5 4 3 3 3 3 2 2 3 3 5 6 6 7 8 8 9 10 11 12 13 14 14
18 15 16 17 18 18 16 17 21 22 20 20 20 18 16 15 13 13 13 11 11 12 11 10 11 10 9 9 10 11 11 11 10 9 9 9 11 11 9 8 8 7 9 11 12 15 17 18 18 15 12 10 10 10 9 9 8 8 8 8 7 7 7 5 4 4 4 4 3 2 2 2 3 4 5 6 6 7 8 9 11 11 12 13 14
20 17 16 17 18 19 17 16 19 22 21 21 20 18 15 15 13 13 15 14 12 12 12 11 12 12 11 10 11 12 11 12 13 12 10 10 12 13 13 11 11 9 9 11 14 17 18 18 17 16 15 13 13 12 11 10 9 10 10 9 9 8 8 7 6 5 5 5 4 3 2 2 2 3 4 5 6 7 8 9 10 11 12 12 13
21 18 17 17 17 19 17 15 19 23 22 20 19 18 16 15 14 14 15 17 15 13 12 12 12 12 12 12 13 14 13 14 15 15 14 14 15 16 16 15 13 12 10 11 15 18 19 19 19 18 18 17 15 15 14 13 12 11 11 11 10 9 9 9 8 6 5 5 5 4 3 2 2 2 3 4 5 6 7 8 9 10 11 12 12
20 19 19 18 17 18 18 15 18 22 22 20 18 18 16 15 16 16 15 17 19 18 15 13 12 13 13 13 13 15 17 17 17 18 18 17 18 18 19 18 16 14 13 13 14 17 20 21 22 21 21 20 18 17 17 15 15 13 12 12 11 11 10 11 10 8 6 6 6 6 5 4 3 3 3 4 5 5 6 7 8 9 10 11 12
19 19 20 20 18 18 21 19 18 20 21 19 18 17 17 16 15 16 16 16 17 19 18 14 13 13 13 13 14 14 16 18 19 21 21 20 20 20 21 20 18 16 15 15 15 16 19 21 23 24 24 22 20 19 18 16 16 15 14 14 13 12 12 12 12 10 8 7 6 6 6 5 4 4 4 3 4 5 5 7 8 9 10 11 12
21 21 20 19 17 19 24 24 20 18 18 18 18 18 17 17 16 15 16 16 14 16 16 14 13 14 12 11 11 12 14 17 20 21 22 22 22 21 23 22 19 17 17 17 17 19 20 21 22 24 25 24 22 22 20 18 17 17 17 16 15 14 13 12 12 12 10 8 8 7 7 7 6 5 5 4 4 5 5 6 8 9 10 11 12
23 25 27 24 21 25 27 26 23 19 17 18 18 18 18 18 19 17 15 14 14 15 16 16 16 13 10 9 8 7 9 12 16 19 21 21 22 21 23 23 21 20 20 20 21 22 22 21 22 23 24 24 23 23 22 20 19 18 17 18 17 16 14 13 13 14 11 9 8 9 8 8 7 6 5 4 4 5 5 6 7 8 10 11 12
22 26 33 33 29 31 30 27 27 23 18 17 18 20 20 18 19 19 17 15 14 16 17 17 18 14 8 6 5 5 6 6 9 13 16 18 20 21 21 23 24 23 23 24 25 24 24 23 23 23 24 24 24 24 23 23 22 19 18 18 18 17 15 14 15 15 13 10 9 10 10 9 8 7 6 5 5 5 5 6 7 8 9 11 13
24 26 32 36 34 33 32 30 30 28 23 19 19 21 21 20 21 21 22 20 16 15 15 17 21 21 14 9 5 4 5 4 3 7 12 15 18 20 21 22 25 27 27 27 28 27 26 26 25 25 25 25 26 25 25 25 23 21 19 18 18 17 17 16 16 15 14 11 10 11 11 10 9 8 8 7 6 6 6 6 7 8 9 11 12
27 25 27 34 37 34 33 33 32 32 30 24 20 20 23 25 25 23 24 25 20 15 15 16 21 24 22 19 13 9 6 2 2 4 8 12 15 19 21 22 25 28 28 29 30 30 29 28 28 28 27 26 27 27 26 26 25 23 21 20 19 17 17 17 16 16 15 13 11 11 11 10 10 9 9 9 8 8 7 6 7 8 9 10 12
25 22 22 29 36 35 34 35 34 34 33 30 23 21 25 28 28 27 26 25 22 19 18 16 16 20 24 24 23 21 16 9 6 6 5 7 13 19 21 22 25 28 30 31 32 32 31 31 30 30 29 28 28 27 27 27 26 24 23 21 20 18 17 16 16 16 15 14 12 12 11 11 10 10 10 10 9 9 7 7 7 8 9 10 11
25 23 23 25 32 36 34 36 36 34 33 33 31 27 27 29 30 31 28 25 24 23 22 19 16 18 21 23 25 27 25 21 16 11 8 6 8 13 17 21 26 29 30 32 34 34 33 33 33 31 31 31 30 28 28 28 27 26 25 23 21 20 18 16 15 15 14 14 13 12 12 11 11 11 10 10 10 10 8 7 8 8 9 10 11
26 27 28 25 30 36 35 36 38 34 30 29 31 31 31 30 30 33 32 29 27 26 24 22 20 18 18 19 21 23 24 22 20 16 12 9 6 6 9 14 20 27 32 33 34 34 34 34 34 33 33 32 31 30 29 29 29 28 26 24 22 21 19 16 14 14 13 13 13 12 12 11 10 11 11 10 10 10 8 8 8 8 9 10 10
33 35 35 31 33 35 36 37 34 30 27 23 23 27 30 27 26 32 35 33 29 26 26 25 22 21 19 18 19 20 18 15 15 17 15 12 10 7 7 9 11 20 29 33 34 34 35 36 35 34 34 34 33 32 31 31 30 30 28 25 24 22 19 16 15 13 12 12 13 12 12 11 10 11 11 11 11 10 9 9 9 9 9 10 11
37 38 38 37 33 28 33 34 27 25 24 22 22 25 26 24 23 27 31 32 29 27 28 27 23 22 21 21 21 20 19 15 16 20 17 14 11 8 9 13 14 17 22 26 30 32 35 36 36 36 35 36 36 34 33 32 31 31 29 26 24 22 20 17 15 14 13 13 13 12 12 11 11 11 12 12 12 11 10 10 11 10 10 10 10
33 35 37 38 31 23 25 27 23 23 23 22 22 23 23 23 24 26 26 28 28 27 27 27 25 24 22 23 24 24 23 21 21 22 20 19 16 10 12 15 15 16 18 20 24 28 33 35 36 37 37 37 37 37 35 34 33 32 29 27 25 23 21 18 16 16 15 14 14 13 12 11 11 13 13 13 13 13 12 12 12 11 10 11 11
32 35 37 37 30 23 23 24 24 23 23 23 23 23 23 23 24 26 26 26 27 27 27 26 26 26 24 23 25 26 26 24 22 22 21 21 19 14 15 16 15 15 15 18 21 23 28 33 34 36 39 39 38 39 37 35 35 33 30 29 27 25 23 19 17 17 17 16 15 14 13 12 12 13 15 15 15 14 14 13 13 11 11 11 11
37 38 39 35 28 25 25 26 25 23 23 23 22 22 23 23 23 25 26 25 25 27 27 27 27 27 25 23 25 27 26 24 24 24 23 22 20 17 16 14 15 13 10 14 18 18 21 28 32 35 37 39 40 39 39 38 36 35 31 30 29 27 24 21 18 18 18 18 17 15 14 13 13 14 15 16 16 15 15 14 14 13 13 12 12
39 38 38 34 32 31 27 24 24 23 22 22 22 22 22 21 22 23 24 23 23 25 26 26 28 28 27 25 26 27 27 25 24 24 26 25 23 23 19 10 8 8 6 9 14 19 23 24 27 33 35 37 39 40 40 39 37 36 33 31 30 29 26 23 20 19 19 19 18 17 16 15 14 15 16 17 17 16 15 15 15 15 15 15 15
34 36 38 37 37 35 27 23 24 23 22 22 22 22 22 22 23 22 22 21 21 23 24 25 27 28 28 27 28 29 28 28 26 24 25 26 27 29 25 16 9 5 4 6 7 15 26 25 23 29 32 33 36 39 40 40 38 37 35 32 32 31 28 24 22 21 20 20 20 19 18 16 15 16 17 18 18 17 16 16 16 16 16 16 17
32 34 38 37 38 38 31 24 23 23 22 23 22 21 21 23 24 24 24 24 23 24 25 24 25 25 26 28 29 29 29 27 25 22 21 23 27 32 31 26 19 8 4 5 5 9 18 24 23 24 27 30 32 35 38 39 39 38 36 34 34 33 29 26 23 22 22 21 21 20 20 18 17 17 18 19 19 18 17 17 17 18 17 18 18
36 36 36 36 36 36 31 25 22 23 23 22 23 22 21 22 24 26 28 27 25 27 29 28 26 25 26 28 30 32 30 27 25 26 26 26 29 33 33 32 26 18 9 6 7 11 13 19 23 23 25 26 26 30 35 37 38 38 37 37 36 33 30 26 25 24 23 23 22 22 21 19 18 18 19 20 20 19 18 18 18 19 19 19 19
35 36 37 34 30 27 26 24 22 22 23 23 22 22 21 23 25 27 28 27 27 30 33 33 31 29 29 31 32 34 32 29 29 32 32 32 33 33 33 32 29 27 21 11 6 10 13 15 19 22 23 23 23 25 30 33 35 37 38 38 36 33 30 28 26 26 26 25 24 23 22 20 19 19 20 21 21 20 19 19 20 20 20 20 20
29 32 33 29 24 23 24 24 23 23 23 23 23 24 26 27 29 29 30 29 29 31 32 33 33 32 32 33 34 35 33 31 33 34 34 34 35 34 34 32 30 29 27 19 9 7 13 15 15 18 20 20 21 22 24 28 32 35 37 37 35 33 31 29 29 29 28 27 26 24 24 22 20 21 21 22 22 21 20 21 21 20 20 21 20
28 27 27 24 23 24 24 24 26 26 26 27 29 32 33 32 32 31 31 31 31 32 32 32 33 33 33 33 34 35 34 33 33 33 34 34 34 34 33 31 30 29 28 23 13 9 13 16 16 18 19 19 20 21 22 26 30 33 35 36 35 34 32 31 32 32 31 29 27 26 26 24 22 22 23 23 23 22 22 22 22 21 21 21 21
27 26 26 25 24 25 25 25 27 28 30 33 34 35 35 34 33 32 32 33 33 33 33 33 33 33 33 34 34 34 32 32 33 33 33 34 33 33 33 31 30 30 29 26 18 11 12 16 18 19 19 19 20 21 22 24 28 31 34 36 36 35 34 33 34 34 32 31 29 28 27 26 23 23 24 24 24 23 23 23 22 22 22 21 21
26 27 27 26 26 26 26 26 28 31 34 35 35 35 36 35 34 34 34 34 34 34 34 34 34 34 34 35 35 34 32 31 32 33 33 34 34 33 33 32 31 31 31 28 23 17 14 16 17 18 18 18 19 21 21 22 26 29 32 35 36 36 35 35 35 35 34 32 30 29 29 27 26 25 25 25 25 24 25 24 23 22 22 22 21
27 29 28 27 28 29 29 29 31 34 35 35 35 35 36 36 35 35 35 35 35 35 35 35 34 34 33 34 34 34 33 32 33 33 33 33 33 33 32 32 31 31 31 29 26 23 19 14 12 15 17 17 18 20 20 21 25 28 30 32 35 36 36 35 35 36 35 33 32 30 30 29 28 27 26 26 25 25 26 25 24 23 23 22 22
30 32 31 31 31 32 34 34 34 35 35 35 35 35 36 36 35 35 35 35 35 35 36 36 35 34 34 34 34 34 33 33 34 34 34 33 33 32 31 30 30 30 29 27 25 23 19 15 12 13 15 15 18 20 20 21 23 25 28 31 33 35 35 36 37 37 36 35 33 32 32 31 30 28 27 27 26 26 27 27 25 24 24 23 22
31 33 34 35 35 36 36 36 35 36 35 35 36 36 36 36 35 35 35 35 35 35 36 36 35 35 35 34 34 34 34 34 34 33 33 33 32 31 31 31 30 28 26 25 24 22 20 18 15 15 16 17 18 19 19 20 22 24 26 29 32 34 35 36 38 38 38 37 35 34 33 33 31 30 29 28 27 27 28 28 27 26 25 23 23
33 35 35 36 37 37 37 36 36 36 35 36 36 36 36 35 35 35 35 35 35 35 35 35 35 35 35 35 34 34 34 34 33 32 31 31 31 31 31 30 28 26 23 22 22 21 20 20 19 18 19 19 18 17 17 19 20 22 24 24 25 31 35 37 38 38 38 37 36 35 35 34 32 31 31 30 29 29 29 29 28 27 26 24 23
36 36 36 36 36 36 37 37 37 36 36 36 36 36 36 36 35 35 35 35 34 34 34 35 35 36 35 35 34 33 33 33 31 30 30 30 30 29 29 27 25 24 21 20 20 19 19 20 21 20 19 17 16 15 15 16 17 20 25 24 21 23 30 36 38 38 37 36 35 35 35 34 33 32 32 32 31 31 30 30 29 28 27 25 23
35 36 35 35 34 35 36 36 37 37 37 37 37 37 37 35 35 35 35 35 34 34 33 34 35 36 35 33 32 31 31 31 30 28 26 25 25 25 26 25 24 23 21 19 19 20 19 18 18 18 15 14 17 18 17 20 23 23 24 26 24 20 20 25 31 35 36 34 33 34 34 34 33 32 32 33 33 32 32 30 29 28 27 24 23
34 34 34 33 33 34 35 36 36 36 37 38 38 37 37 36 35 34 35 35 34 33 33 34 34 34 33 31 30 30 29 27 26 24 22 21 21 21 22 23 22 22 23 22 21 20 20 18 17 17 15 13 19 24 24 26 28 24 20 23 27 23 15 14 20 28 32 32 31 32 34 33 32 31 32 33 33 33 33 31 29 28 26 24 24
34 34 33 33 34 35 34 35 35 36 37 37 37 37 37 36 35 35 34 33 33 33 33 33 32 31 31 29 29 28 27 25 24 22 20 20 20 20 21 21 21 21 23 24 22 21 20 18 16 18 17 15 19 25 27 25 24 24 22 22 22 18 13 11 12 16 22 25 26 28 30 31 30 30 31 32 33 34 33 31 29 27 25 24 24
33 32 33 34 35 35 34 34 35 36 36 36 37 36 35 35 36 35 34 32 32 32 32 31 30 29 29 28 27 26 25 25 24 22 22 21 20 20 21 22 21 20 20 21 21 21 22 20 18 18 20 18 18 22 25 24 22 24 23 21 19 17 14 13 12 12 15 17 18 20 23 25 26 26 27 29 30 32 30 27 26 26 24 24 24
31 31 32 33 34 34 34 34 34 35 35 35 35 34 33 35 36 34 33 32 31 31 30 30 30 29 28 27 25 24 24 23 22 22 22 22 21 21 21 20 20 20 19 18 19 20 21 22 21 20 22 22 20 21 23 23 22 22 21 21 23 22 19 17 16 14 15 16 14 13 16 20 23 23 26 28 29 29 27 24 24 24 23 23 22
29 30 31 32 33 33 34 34 34 35 35 35 34 34 34 35 33 31 31 31 30 29 28 29 29 29 28 27 25 24 23 23 23 23 23 22 21 21 22 21 20 20 19 19 20 20 21 22 22 21 20 21 20 20 20 20 20 20 21 22 24 24 23 22 20 18 18 19 16 10 10 17 22 23 25 27 26 26 24 22 21 21 20 21 21
30 31 31 31 32 32 32 32 32 33 34 34 33 32 31 30 28 28 29 29 29 28 26 26 27 26 26 27 26 24 24 25 25 24 23 23 23 23 23 22 21 21 20 19 20 21 22 22 22 20 19 18 19 19 19 18 17 18 20 22 21 21 20 20 19 20 22 23 20 13 8 12 18 20 20 22 23 23 23 21 21 20 20 21 21
30 30 31 31 32 32 31 31 31 32 33 31 30 29 29 29 28 28 28 28 28 27 25 24 24 23 24 25 24 23 25 26 25 23 22 22 23 23 23 22 21 21 20 19 19 20 21 21 21 20 20 19 18 17 17 16 14 14 16 17 17 15 13 11 12 15 19 22 22 17 11 11 16 17 18 20 22 23 23 22 21 20 19 19 20
30 30 31 31 31 31 30 30 31 31 30 28 28 28 29 30 30 29 29 29 28 27 26 25 23 22 22 22 23 24 25 25 24 22 22 23 24 23 23 22 22 21 20 20 19 19 20 20 20 19 19 18 16 14 14 13 12 13 13 14 14 13 10 7 7 9 12 16 19 16 12 11 14 16 17 19 20 20 19 18 17 16 17 17 17
32 32 32 30 30 29 29 30 30 30 28 28 28 28 28 29 31 31 31 30 28 27 26 25 24 23 23 23 23 24 25 24 24 23 23 24 24 24 23 22 21 21 21 20 19 18 18 18 18 17 16 14 13 12 11 11 11 12 12 13 13 12 10 8 7 7 7 11 15 13 9 8 10 12 13 15 14 12 10 11 11 10 12 13 14
31 31 30 30 30 30 30 30 30 30 29 28 29 28 27 28 30 31 31 30 29 28 27 26 25 24 25 25 25 25 24 24 24 24 24 24 24 23 23 22 22 22 21 19 18 18 17 16 16 15 15 14 13 11 11 11 10 10 10 12 12 11 9 8 7 6 4 5 6 7 5 5 6 7 7 8 7 4 3 5 8 9 11 14 16
Wind_Direction
240 237 237 237 237 239 238 235 228 220 215 212 212 214 216 219 217 215 216 220 229 244 262 274 295 300 294 299 297 278 253 351 3 4 7 8 12 9 186 180 178 178 164 161 168 160 153 148 142 144 141 135 132 124 117 116 109 104 103 100 85 67 68 62 47 47 56 58 52 47 40 35 32 30 29 26 24 24 21 19 17 15 13 11 10
249 248 245 243 240 238 236 232 228 222 216 215 215 215 217 219 217 218 221 224 234 247 259 267 283 294 291 279 264 256 232 238 334 324 336 335 359 7 190 187 185 184 176 169 173 171 167 166 158 156 155 147 143 135 129 128 119 105 110 110 90 75 78 71 49 51 58 55 50 46 39 32 31 29 27 25 23 21 20 18 15 13 12 10 9
250 253 250 246 242 239 236 232 230 225 218 217 218 219 220 222 222 223 222 226 237 245 255 265 279 291 297 285 258 245 232 231 276 275 302 308 302 356 243 196 194 188 185 181 180 180 183 187 174 164 164 159 155 150 143 140 135 121 122 117 82 76 84 77 58 63 65 53 49 47 39 31 29 27 25 24 21 20 18 16 14 12 11 9 8
247 250 248 244 241 238 237 234 231 226 221 220 221 223 225 228 231 230 229 229 236 247 254 259 271 281 290 285 255 234 228 241 261 245 257 292 264 328 344 210 205 198 195 191 187 187 190 191 182 177 176 172 169 162 159 155 151 144 137 134 77 72 87 79 55 68 75 55 46 45 39 31 27 25 23 23 20 18 17 14 12 10 9 8 7
246 247 244 241 240 238 236 234 231 227 224 223 225 228 229 234 237 237 237 234 236 246 252 253 258 269 275 268 251 232 221 230 262 251 253 277 254 260 327 242 213 208 207 201 196 198 197 192 187 182 174 170 176 172 172 171 167 165 159 169 178 97 105 83 27 45 66 48 40 42 40 29 25 24 21 20 19 17 15 13 11 8 8 6 5
243 245 244 241 240 239 237 233 231 228 227 228 230 233 234 237 240 239 238 235 236 241 246 249 252 259 264 256 249 238 226 221 251 256 256 264 255 248 280 276 224 217 216 211 207 207 201 194 190 185 177 171 177 181 184 185 183 180 180 210 243 142 149 208 270 299 313 348 18 37 42 30 23 23 20 18 17 15 13 11 10 7 6 5 4
239 242 243 241 238 238 238 235 232 229 230 232 232 235 238 238 237 236 235 234 233 237 240 244 251 256 255 252 248 240 227 222 242 259 259 262 255 242 258 266 242 221 215 212 208 206 203 198 197 197 200 194 186 190 195 192 192 191 192 210 234 237 241 255 249 251 282 309 353 25 40 33 24 21 18 17 14 12 11 9 8 6 5 3 2
237 236 237 236 234 236 238 237 234 231 231 234 234 237 240 240 237 236 236 236 233 234 238 242 250 255 254 252 248 243 236 227 236 254 256 262 255 241 251 261 256 234 213 208 204 203 205 206 207 212 220 215 199 197 203 200 196 196 198 205 227 255 268 267 253 250 274 295 327 2 23 31 26 20 14 13 11 8 7 6 5 4 3 1 360
235 232 233 233 232 235 237 236 234 234 235 237 238 238 240 240 239 239 238 239 239 236 236 241 248 252 254 251 246 248 242 230 233 242 245 253 253 243 243 248 254 251 221 213 212 210 211 215 219 226 234 233 215 203 204 207 203 201 204 208 223 252 270 273 260 253 270 289 304 330 4 18 20 17 9 6 7 4 4 3 3 2 1 360 357
236 231 233 233 233 234 235 235 234 236 237 238 240 240 240 240 239 240 239 237 239 239 238 240 245 249 253 250 247 248 241 233 235 236 237 243 245 242 240 241 243 244 234 227 224 221 221 223 228 234 240 243 234 219 208 207 208 209 211 211 216 237 260 272 271 262 266 280 290 300 317 345 0 5 1 359 0 1 2 359 359 360 358 355 353
236 230 233 234 234 235 234 235 237 237 237 237 238 238 239 240 240 240 241 239 238 237 239 240 244 248 252 250 245 244 241 241 240 236 241 246 246 243 239 240 240 235 236 238 232 229 229 229 232 237 242 245 245 234 221 216 215 214 215 213 214 225 244 264 274 269 262 268 279 288 290 301 323 338 351 353 354 356 357 356 354 355 353 350 348
234 231 233 234 233 234 233 234 236 235 234 233 234 235 236 239 239 237 238 241 241 238 237 238 244 249 252 250 248 246 243 241 238 236 241 247 248 246 239 237 239 236 235 236 237 237 235 234 236 239 243 246 247 240 233 231 227 221 217 215 216 220 234 255 270 272 264 261 268 280 286 290 298 310 335 344 346 349 350 350 349 348 348 347 344
233 230 231 235 233 232 236 235 232 231 232 232 233 234 233 233 236 237 235 236 238 238 235 234 241 247 249 249 249 247 245 242 238 236 238 241 243 242 238 237 238 239 238 237 241 246 242 240 240 241 243 246 246 240 237 238 236 229 223 218 217 217 227 247 263 269 267 264 263 272 280 285 291 298 310 326 335 340 343 344 344 343 344 343 342
233 231 232 233 229 232 239 238 232 229 230 232 233 233 233 233 233 235 233 230 233 234 227 224 230 240 248 255 249 237 239 244 243 243 243 242 242 239 236 236 236 240 244 243 244 247 246 244 244 244 244 245 243 240 239 238 235 233 229 225 221 219 223 237 254 265 266 263 263 269 276 280 285 291 296 308 324 331 336 338 339 338 339 340 341
232 235 239 237 234 239 241 238 235 228 226 230 230 229 231 232 230 228 227 227 231 229 221 219 224 233 244 254 257 246 238 234 235 241 243 243 243 239 236 234 233 239 243 243 243 245 246 246 247 248 246 244 241 240 240 237 234 234 233 231 227 223 222 227 245 262 265 261 263 268 273 277 282 285 287 296 311 321 326 331 331 332 335 337 338
231 237 243 242 240 242 240 238 237 231 224 226 227 228 227 225 224 223 222 222 226 225 221 221 222 223 229 233 246 263 251 227 228 230 227 235 240 236 236 234 232 236 238 239 242 244 245 246 248 249 247 244 241 240 239 236 235 234 233 234 232 227 222 223 239 257 263 261 262 267 271 274 279 280 281 286 295 303 312 321 324 327 331 335 335
235 237 242 242 241 241 240 238 239 236 230 226 228 229 227 224 224 222 220 221 225 223 219 223 222 219 224 230 221 244 248 226 240 226 209 222 234 232 234 235 234 236 238 239 241 243 244 246 247 248 247 245 242 240 238 235 233 232 232 234 234 230 224 225 236 250 259 261 260 264 269 273 278 279 279 283 287 291 300 312 318 323 328 332 332
234 233 237 240 241 241 241 240 239 239 236 231 228 228 229 232 231 226 223 224 226 227 223 225 226 222 225 235 238 254 272 206 199 246 209 209 224 229 231 233 233 236 238 240 241 242 243 245 247 247 247 246 243 241 237 234 232 230 231 233 233 232 228 228 233 242 252 260 259 260 265 271 275 277 279 283 285 291 299 306 312 318 325 328 328
227 225 229 237 240 240 241 241 239 240 239 234 228 225 231 237 235 232 231 226 223 229 231 223 220 223 226 233 239 245 254 245 240 269 250 217 221 225 229 230 231 234 238 239 240 241 242 245 246 246 246 246 244 242 237 234 233 231 232 233 233 232 230 230 232 236 246 255 258 260 264 268 272 274 278 283 286 291 298 302 306 312 319 323 323
224 223 228 232 239 240 240 241 240 238 239 238 234 230 233 238 238 238 236 228 222 226 231 223 216 223 225 230 236 239 242 243 244 255 266 260 234 223 227 231 231 233 237 238 239 241 243 245 246 246 247 246 244 241 239 236 235 233 233 232 232 232 231 230 232 236 242 249 254 259 263 267 271 275 278 282 287 291 295 298 302 307 312 316 318
229 231 233 232 240 242 239 240 240 237 237 237 236 235 237 238 239 241 238 231 226 225 229 227 222 223 223 226 231 235 238 239 238 242 247 252 249 226 216 224 234 237 237 238 240 242 243 244 247 247 247 247 245 242 240 239 236 234 234 233 232 232 231 230 233 238 243 248 253 258 263 267 272 277 279 281 285 290 292 293 296 301 305 308 313
235 238 238 236 241 242 239 239 238 236 234 232 231 234 236 235 235 240 239 235 228 223 227 229 227 224 223 226 227 226 228 228 226 231 237 238 244 250 218 206 230 241 240 241 243 244 244 244 246 247 246 246 246 244 241 240 238 236 236 234 233 231 230 231 237 243 247 251 256 259 264 269 274 277 280 282 284 284 285 287 289 294 299 303 308
236 238 239 238 238 237 238 238 234 232 232 230 230 231 232 231 230 235 236 234 228 224 227 229 229 228 224 226 230 226 222 217 213 218 224 230 235 248 234 223 231 242 246 247 246 246 245 244 244 245 245 245 245 245 243 241 239 239 238 236 234 232 231 234 243 250 254 257 260 262 266 272 276 279 280 281 282 279 278 281 286 290 293 297 304
233 236 237 237 235 230 232 233 229 227 227 228 230 228 228 229 230 231 230 229 227 224 226 227 227 230 225 225 232 234 231 228 222 218 220 226 230 238 238 234 239 241 240 243 245 244 244 245 246 245 245 244 245 245 243 241 240 240 239 237 235 232 232 236 244 252 257 259 261 264 267 272 276 279 280 281 281 279 279 282 287 290 289 292 299
230 233 236 235 230 224 224 226 227 227 225 226 227 226 226 226 227 229 227 226 225 224 226 227 226 228 226 225 231 235 236 234 230 226 227 228 229 238 242 239 244 242 231 231 240 246 245 245 247 246 245 244 244 245 244 242 241 241 239 237 235 233 233 237 241 248 255 259 261 262 264 268 271 276 279 280 282 283 284 286 287 287 287 291 296
232 234 237 234 224 221 224 226 228 228 227 227 227 225 226 226 227 228 228 227 227 226 228 229 229 229 229 228 231 234 235 234 231 231 232 229 227 236 243 239 239 239 228 226 234 241 245 247 247 245 245 245 245 245 245 242 241 241 238 236 236 234 233 237 240 245 251 256 260 261 262 265 268 273 277 279 283 285 286 288 288 285 284 288 292
236 237 236 231 225 227 227 224 224 227 228 227 226 226 225 226 228 230 230 230 228 229 230 231 231 232 231 230 232 234 235 234 231 231 232 230 230 236 240 237 236 237 226 221 227 235 240 246 249 246 245 246 245 245 246 243 241 241 239 236 236 235 233 236 240 244 249 255 261 262 262 264 268 273 276 279 284 284 285 286 285 283 284 288 292
236 236 236 233 233 234 229 225 228 227 226 226 226 226 225 226 230 231 230 229 227 229 231 232 233 233 232 232 233 236 237 235 233 234 235 235 235 238 238 235 237 238 220 212 223 242 242 239 245 250 248 246 246 246 245 242 240 240 238 235 235 235 234 235 240 245 249 254 260 262 261 263 267 272 275 279 283 283 283 284 282 283 286 290 293
234 235 237 236 237 236 232 230 230 227 226 227 226 226 225 227 229 230 230 230 229 230 231 231 232 233 233 232 233 236 238 236 234 235 238 238 239 241 239 236 236 237 230 225 213 232 244 239 236 247 252 248 248 247 245 242 240 239 237 234 234 235 235 236 241 246 250 254 259 260 260 262 265 270 273 278 281 281 281 282 282 283 287 290 293
236 237 237 237 238 237 233 230 228 227 226 226 226 226 225 226 229 231 234 233 230 231 233 233 232 233 232 233 234 237 238 237 238 240 242 243 242 242 242 240 239 237 238 252 229 211 226 237 234 241 252 253 251 248 245 242 241 240 237 235 235 236 236 238 241 247 250 253 257 259 259 260 263 267 271 276 278 277 277 278 278 281 286 289 292
237 238 238 237 235 232 229 226 226 226 226 225 225 224 222 225 230 233 235 233 231 234 238 237 236 234 234 235 236 237 238 239 242 244 243 245 245 244 243 242 240 239 238 247 252 219 218 233 238 241 248 253 253 248 243 242 241 239 237 236 236 236 236 238 241 246 249 252 255 258 258 258 261 265 270 275 276 274 275 275 276 280 285 288 290
235 237 237 234 228 225 225 224 224 225 225 224 224 226 226 230 234 236 237 235 234 237 239 238 237 236 236 236 236 238 239 240 242 242 242 243 244 244 244 243 241 240 239 240 249 246 237 240 244 245 244 245 248 246 242 241 240 239 238 237 236 234 234 236 240 244 247 250 254 256 256 256 258 263 267 271 272 273 273 273 275 280 284 286 289
233 233 232 228 224 225 225 224 225 226 226 228 232 234 232 233 237 239 240 238 236 236 236 236 236 237 236 236 237 240 240 239 239 239 240 242 243 243 243 242 240 241 240 238 241 250 247 244 243 245 244 240 240 240 239 239 239 238 236 235 233 232 233 235 240 243 246 249 252 254 255 255 256 260 265 268 270 271 270 271 274 279 282 285 288
231 229 227 226 226 227 226 226 227 227 230 234 237 234 229 230 234 237 238 237 236 235 235 235 235 236 236 236 237 239 238 238 239 240 241 242 243 243 242 241 241 242 242 239 239 242 246 245 241 240 240 235 232 236 237 237 239 237 234 232 231 230 232 235 240 244 246 248 250 253 254 255 256 259 263 267 269 270 270 271 274 279 281 284 288
229 229 229 229 229 228 227 228 229 230 233 235 234 230 227 228 231 233 234 235 234 234 233 234 235 234 234 234 236 238 239 239 240 241 242 242 243 242 243 243 242 243 245 241 236 235 239 243 239 234 235 230 228 234 237 236 238 237 235 233 232 231 233 235 239 244 246 247 249 252 254 255 255 258 262 266 269 270 271 273 275 279 281 284 287
232 232 232 232 231 229 229 229 231 232 233 232 230 228 228 229 231 232 234 233 233 234 234 235 235 234 233 233 234 237 239 239 240 241 241 242 243 243 243 245 244 246 247 244 238 236 236 238 230 229 234 230 227 233 235 234 235 236 235 235 235 234 235 237 240 244 247 248 249 251 254 255 255 258 262 265 268 270 272 274 276 278 281 283 287
234 234 233 232 231 231 230 231 232 232 231 230 229 228 228 230 231 233 234 234 234 235 236 237 237 236 236 236 236 236 236 237 240 242 241 241 242 243 244 245 247 248 247 244 241 238 235 232 225 226 230 227 226 231 233 232 232 232 233 234 235 235 236 239 241 244 246 248 249 250 252 254 255 258 262 265 268 270 272 274 276 277 279 282 285
233 233 233 233 232 232 231 232 232 232 232 231 230 229 230 230 231 232 234 235 236 237 237 237 238 238 237 236 237 238 237 237 238 240 241 241 241 243 244 245 246 245 243 243 242 239 233 230 227 226 226 224 223 226 230 230 227 226 228 231 234 235 236 238 242 244 246 246 248 250 251 254 256 259 263 266 268 269 271 273 275 276 278 279 282
232 233 233 233 233 232 232 232 232 232 232 231 230 230 231 232 232 233 235 235 236 238 238 238 238 239 239 238 240 241 240 239 240 243 244 243 241 242 243 244 242 239 238 240 240 236 227 223 222 223 224 221 218 220 227 227 223 225 225 225 231 235 235 238 241 244 246 247 248 250 252 255 257 260 264 267 268 269 269 271 274 275 276 277 281
234 234 233 234 233 233 232 232 232 232 232 231 231 231 232 233 233 234 236 236 236 237 238 239 239 239 239 240 241 243 245 245 246 248 247 244 242 242 242 241 237 233 230 231 232 227 218 215 217 218 217 212 208 212 218 213 210 222 225 222 225 232 236 240 242 243 246 248 249 250 252 255 257 261 265 268 269 269 269 270 272 273 274 276 279
237 236 235 235 234 233 233 232 232 232 231 231 232 232 232 232 233 234 235 237 237 237 237 238 239 239 239 240 243 246 248 248 248 247 248 248 245 243 241 237 232 229 225 223 223 219 211 210 213 211 206 205 205 204 206 209 214 224 227 222 224 230 235 242 247 247 247 248 251 254 254 256 259 262 266 269 271 271 270 270 270 272 274 276 277
240 238 237 236 235 234 234 233 232 232 232 232 233 234 235 235 235 234 234 235 236 236 237 238 238 237 238 240 243 245 245 247 246 244 244 244 242 241 242 238 233 229 223 219 218 214 210 211 210 203 197 203 210 210 214 222 226 227 224 221 225 229 231 243 253 255 252 249 251 255 257 259 262 264 267 270 272 272 270 271 272 273 275 275 276
242 241 239 237 236 236 235 234 233 232 233 234 235 236 237 237 238 237 235 235 237 237 237 237 236 237 237 237 240 240 239 240 241 238 235 234 234 235 237 238 238 235 227 221 215 210 208 210 212 208 206 211 218 219 221 227 228 227 225 223 224 223 222 233 248 257 257 252 248 252 258 262 264 266 269 272 273 272 272 273 273 273 274 275 276
243 241 240 239 238 237 236 236 235 235 235 236 237 238 238 239 240 239 236 236 237 236 236 236 237 238 236 235 235 234 233 234 234 232 229 227 228 230 232 236 238 237 235 230 223 217 213 212 212 213 214 217 220 223 225 229 231 230 227 225 225 221 219 229 237 248 257 254 245 246 254 261 265 268 272 274 273 273 273 273 271 272 274 276 278
241 241 241 240 240 239 238 237 237 237 237 238 239 239 240 242 241 238 237 237 237 236 236 236 235 234 232 230 227 226 228 230 228 226 224 223 223 226 229 231 232 233 234 235 234 232 227 222 217 218 221 222 225 233 240 241 236 229 223 224 229 228 226 233 240 248 257 258 251 247 255 264 268 270 274 276 275 275 276 274 272 274 276 277 278
237 238 239 239 239 239 239 239 239 240 240 240 241 240 240 241 239 236 235 236 236 237 238 236 232 230 229 226 223 223 224 222 219 218 218 219 221 223 224 224 225 228 229 229 230 232 233 231 227 227 232 234 237 245 254 253 243 234 231 233 234 233 234 239 245 251 256 258 256 255 262 270 271 272 274 276 277 279 279 277 275 276 278 277 277
234 235 237 238 238 238 238 238 238 239 240 240 239 238 237 236 234 232 232 233 232 231 233 233 230 228 227 223 220 221 220 216 214 214 216 219 221 222 222 221 221 223 224 226 227 228 231 232 233 236 240 245 248 252 257 258 251 246 244 243 242 241 243 248 253 257 259 260 258 252 257 270 270 272 276 277 280 284 285 283 282 282 281 279 277
231 232 233 234 235 234 235 235 236 238 238 236 234 233 233 232 229 227 227 227 225 224 225 226 224 223 224 221 217 216 215 214 213 214 216 219 221 220 219 219 220 219 220 223 226 228 231 234 237 242 245 249 252 253 254 255 250 243 240 239 241 240 239 245 251 255 260 264 259 249 248 269 274 275 279 282 286 292 291 289 289 286 282 279 278
224 224 226 228 230 231 232 232 233 235 235 232 229 229 229 227 224 223 222 221 220 220 218 217 216 216 217 218 215 212 212 213 213 212 215 218 218 217 215 215 215 216 217 219 222 226 231 235 239 243 245 248 249 247 245 242 237 232 223 222 227 225 217 224 241 245 253 262 265 257 248 261 275 280 286 291 295 299 298 294 292 288 282 282 283
221 221 221 223 225 227 228 229 229 230 230 229 228 225 223 222 221 219 217 215 213 211 209 208 210 210 211 213 214 213 213 213 212 210 212 215 214 213 212 210 210 212 213 214 218 223 227 231 235 237 239 240 238 234 233 229 229 230 219 217 225 220 207 217 241 251 254 261 269 266 250 258 281 290 300 305 302 300 296 292 294 295 291 294 297
223 221 218 219 221 222 224 226 226 226 227 229 226 221 220 220 219 216 212 207 204 203 203 203 204 206 209 209 210 212 213 211 207 206 208 210 211 213 211 206 206 209 211 212 217 222 223 225 229 230 231 231 228 228 229 226 228 231 223 224 230 223 215 226 242 258 268 264 269 266 249 272 300 305 318 321 307 299 307 297 300 305 299 298 301